Location: Newark
(34.9471°N, 136.1778°E)
Time: 13:28:48
(UTC+00:00)

LightSail 2 - Visible Passes

Search period start: 08 December 2019 00:00
Search period end: 18 December 2019 00:00
Orbit: 696 x 730 km, 24.0° (Epoch: 07 December)

Date Brightness Start Highest point End Pass type
(mag) Time Alt. Az. Time Alt. Az. Time Alt. Az.
08 Dec 7.3 09:46:27 10° SW 09:49:45 17° SSW 09:51:54 13° SSE visible
09 Dec 7.3 08:48:08 10° WSW 08:51:51 20° S 08:55:31 10° SE visible
10 Dec 7.7 09:36:34 10° SW 09:38:44 13° SSW 09:40:54 10° S visible
11 Dec 7.7 08:37:46 10° SW 08:40:50 16° SSW 08:43:52 10° SSE visible
13 Dec 8.0 08:28:18 10° SW 08:29:45 11° SSW 08:31:12 10° S visible
